ONEWEB-0037, 45440

Orbit data source: Space-Track

ONEWEB-0037, 45440 is a payload satellite owned by One Web (UK) in LEO that was launched on Sat, 21 Mar 2020 UTC via a SOYUZ-2-1B launch vehicle from the Tyuratam Missile And Space Complex (TTMTR). Payload-class satellites include a variety of spacecraft equipped with specific instruments for various scientific and technological missions. These include communications satellites like Starlink; space stations such as the ISS; scientific satellites like the Hubble; Earth observation satellites from companies like Planet Labs, Umbra, and HawkEye 360; GPS; miniature CubeSats for education and research; and military/defense satellites.

Loading next visibility...
Identifier
45440, 2020-020S
Orbit
LEO
Country
Flag of UKUK
Related business
Manufacturer
One Web
Mission
Operational Commercial Communications
Bus & Motor
ARROW, Unknown motor
Mass
148 kg wet, ~140 kg dry
Launch date (UTC)
2020-03-21 (6 years ago)
Launch vehicle
SOYUZ-2-1B
Launch site
Tyuratam Missile And Space Complex (TTMTR)
Object type
Payload
Rocket body
Debris
Shape & HBR
Trap Box + 2 Pan, 6.7 m
Radar Cross Section
3.464 m², Large (>1 m²)

Expand to show TLE details & history
Last TLE update: 10 hours ago

TLE from 10 hours ago
0 ONEWEB-0037
1 45440U 20020S   26254.75527840  .00000522  00000-0  14383-2 0  9998
2 45440  87.8980   3.8312 0001651 104.1851 255.9461 13.11416377314047
Epoch: 2026-09-11T18:07Z
TLE epoch observation values (Epoch: 2026-09-11T18:07:36.053Z)
Latitude
0.00002°
Longitude
101.1569°
Altitude
1,220.879 km
Speed
7.244 km/s
True Right ascension
00h 15m 19s
True Declination
0° 00' 00"
Sunlit
Object was in full shadow at epoch
Visualization orbit readout
Latitude
Unknown
Longitude
Unknown
Altitude
Unknown
Speed
Unknown
Apparent Right ascension
Unknown
Apparent Declination
Unknown
Sunlit
N/A
Visualization observer readout
Local Sidereal Time
20:52:51
Azimuth
Unknown
Elevation
Unknown
Doppler factor
Unknown
Orbital elements
Apogee altitude
1,216.057 km
Perigee altitude
1,213.549 km
Semi-major axis
7,592.94 km
Eccentricity
0.00017
Inclination
87.898°
RAAN
3.8312°
Arg. of periapsis
104.1851°
True anomaly
255.92775°
Mean anomaly
255.9461°
Eccentric anomaly
255.93692°
Mean motion
3.28041 °/min
Orbital period
109.74 mins
BSTAR
0.0014383
Loading maneuver chart data...
Computing Atmospheric mass density...
Loading historical data...
Loading historical data...
Loading historical data...
Loading historical data...
Loading historical data...
Loading historical data...
Loading historical data...

Documentation

Showing up to 5 results
|